Vertical_Velocity
-1 -0 -1 -1 -0 -0 0 -0 -0 -0 -1 -1 -1 -1 1 -1 1 -1 -2 -1 -2 -3 -2 -2 -2 -0 -2 -2 -2 -0 -1 -2 -1
-1 -1 -1 -2 -1 -0 -1 -1 -1 -0 -2 -2 -1 -2 -2 -2 -2 -1 -2 -1 -1 -1 -2 -1 -0 0 -1 -0 -0 -2 -1 -0 -1
-1 -1 -2 -2 -1 -1 -1 -1 -1 -2 -1 -1 0 -1 -1 -0 -2 -2 -2 -1 -1 -0 -2 -2 -3 -3 -3 -2 -3 -0 -0 0 0
0 -0 -1 -1 -1 -1 -1 -1 -1 -2 -2 -1 -0 -1 -1 -2 -1 -1 -1 -1 -2 -2 -2 -3 -2 -2 -1 -2 -2 -0 -1 -0 0
0 -0 0 -2 -2 -1 -1 -1 -1 -1 -2 -2 -2 -2 -3 -1 -2 -2 -1 -2 -1 -2 -2 -3 -3 0 -1 -3 -3 -2 -1 -2 -1
-0 0 0 -0 -0 -1 -0 -0 -1 -0 -0 -1 -2 -2 2 -2 -2 -1 -2 -2 -1 -2 -2 -2 -3 0 -0 -2 -1 -2 -1 -1 -1
-0 0 -0 1 -1 0 -1 -0 -1 -1 -1 -1 -1 -0 0 -1 -1 -1 -1 -1 -1 -1 -1 -1 -2 -1 -1 -1 -1 -1 -1 -1 -2
-1 -1 -0 -0 -1 -0 -1 -0 -1 -1 -0 -1 -1 1 -1 -2 -2 -1 -1 -1 -1 -0 -1 -1 -1 -1 -1 -1 0 0 -1 -0 -0
-0 -0 1 -1 -0 -0 -2 -1 -1 -2 -1 -1 -1 0 -2 -1 -1 -1 -1 -2 -1 -1 -0 -0 -1 0 0 -0 -1 -0 1 0 -1
-2 -1 -1 -1 2 -0 -0 -1 -1 -1 -1 -0 -1 -0 0 -1 -2 -1 -2 -3 -2 -1 -1 -2 -1 -2 -1 -0 -1 -1 -1 -1 -1
-2 -2 -2 -1 -1 -0 -0 -1 -0 -1 -1 -1 -1 0 1 -2 1 -1 -1 -2 -1 -2 -2 -2 -2 -2 -3 -3 -3 -2 -1 -1 -0
-2 -3 -1 -4 -3 -3 -2 -1 -1 -0 -1 -1 -1 -1 -0 2 -2 1 -0 -0 -0 -1 -1 -1 -2 -2 -2 -2 -1 -1 -1 -1 -1
-1 -1 -1 -1 -2 -1 -2 -2 -2 -1 -1 -1 -1 -1 -1 -1 0 1 -1 -2 1 -1 -0 -1 -1 -1 -0 -1 -1 -1 -1 -1 -1
1 -1 -2 -1 -1 0 -1 -1 -1 -1 -1 -2 -1 -1 -1 -0 -1 -1 -1 3 -4 -1 -2 -2 -1 -1 -2 1 -0 -0 -1 -1 -0
-0 -1 -1 -2 -1 -0 -2 -1 -1 -1 1 0 -0 -1 -1 -1 0 -0 -3 -3 1 0 -1 -1 -3 -0 -2 1 -3 -1 -1 -1 -0
0 -1 -0 -1 -1 -1 -2 -2 -1 -2 -1 -0 1 0 -0 -2 0 1 -2 -1 -1 -2 -1 -1 1 0 1 -2 -3 -0 -1 -1 -1
-3 3 1 0 -0 -2 -2 0 -3 -2 -2 -2 -1 -1 3 -4 1 2 1 -1 0 -2 -2 1 -2 -1 -1 0 -2 -5 -1 -2 -2
4 -5 -4 -0 -0 -0 -1 0 -0 -2 -2 -0 -1 -1 5 -3 -6 -3 -2 -2 -2 2 -5 -5 -0 3 -8 2 3 -4 0 0 -2
2 2 -0 -4 -1 -5 0 -2 1 0 -3 -1 -0 -1 -1 1 9 -2 -4 -2 -6 3 1 -5 -5 5 2 -1 8 -4 0 1 -1
-1 -2 -7 -0 -3 -1 2 -0 -2 3 -0 0 -0 0 -1 -2 -5 2 5 4 -5 -0 -3 -6 -5 -5 -3 -5 -1 -0 -3 -2 -2
Height
5868 5869 5869 5869 5869 5869 5868 5868 5868 5867 5867 5867 5867 5867 5868 5868 5868 5867 5867 5866 5865 5864 5862 5861 5860 5859 5858 5856 5855 5853 5852 5851 5850
5866 5867 5867 5868 5867 5867 5867 5867 5867 5867 5867 5867 5867 5867 5867 5867 5866 5866 5866 5865 5863 5862 5861 5860 5859 5858 5856 5855 5853 5851 5850 5849 5848
5864 5865 5866 5866 5866 5866 5866 5866 5867 5867 5867 5867 5866 5866 5866 5865 5865 5864 5863 5862 5861 5860 5858 5857 5855 5854 5853 5853 5851 5849 5849 5847 5846
5862 5864 5864 5865 5865 5865 5865 5865 5866 5866 5866 5865 5865 5865 5865 5863 5863 5862 5861 5860 5859 5857 5856 5855 5853 5852 5851 5850 5848 5847 5846 5845 5844
5860 5862 5863 5863 5863 5864 5864 5864 5864 5864 5864 5864 5864 5864 5863 5862 5861 5860 5859 5858 5857 5856 5854 5853 5851 5851 5849 5848 5846 5845 5844 5843 5841
5858 5859 5861 5861 5862 5862 5862 5862 5863 5863 5863 5863 5862 5862 5862 5860 5859 5858 5857 5856 5854 5853 5852 5850 5849 5848 5847 5846 5844 5842 5840 5839 5838
5856 5858 5858 5859 5860 5860 5860 5860 5860 5860 5861 5860 5860 5859 5858 5858 5856 5855 5854 5853 5852 5850 5849 5848 5846 5844 5843 5842 5840 5838 5836 5834 5833
5854 5855 5856 5857 5857 5857 5857 5858 5858 5858 5858 5858 5857 5857 5855 5855 5853 5852 5851 5850 5848 5847 5846 5844 5843 5841 5839 5837 5835 5834 5832 5830 5828
5852 5853 5854 5854 5854 5854 5855 5855 5855 5855 5855 5855 5855 5854 5853 5852 5850 5849 5848 5846 5845 5843 5841 5840 5838 5836 5835 5833 5831 5829 5827 5825 5822
5851 5850 5850 5851 5851 5852 5852 5852 5852 5852 5852 5852 5851 5851 5850 5848 5847 5845 5844 5842 5841 5839 5837 5835 5833 5831 5829 5827 5825 5823 5821 5819 5816
5848 5848 5848 5848 5848 5848 5848 5848 5848 5848 5848 5847 5847 5846 5845 5844 5843 5841 5839 5837 5835 5834 5832 5830 5828 5826 5824 5822 5819 5817 5815 5812 5810
5845 5845 5845 5845 5845 5845 5844 5844 5843 5843 5843 5842 5842 5841 5840 5839 5837 5836 5834 5832 5830 5828 5826 5824 5822 5819 5817 5815 5812 5810 5807 5805 5802
5842 5841 5841 5841 5841 5840 5840 5839 5838 5838 5837 5837 5836 5835 5834 5833 5831 5830 5828 5826 5824 5822 5820 5817 5815 5812 5810 5807 5804 5801 5798 5796 5793
5837 5837 5837 5836 5836 5835 5835 5834 5833 5832 5831 5830 5830 5829 5827 5826 5824 5823 5821 5819 5817 5815 5813 5810 5807 5804 5801 5798 5795 5792 5789 5786 5783
5831 5832 5832 5831 5831 5830 5829 5828 5827 5826 5825 5824 5823 5822 5820 5819 5817 5815 5813 5811 5809 5807 5805 5802 5798 5795 5792 5789 5785 5782 5779 5776 5773
5824 5825 5826 5825 5825 5824 5822 5821 5820 5819 5818 5817 5816 5814 5813 5812 5809 5808 5805 5803 5801 5798 5795 5792 5790 5786 5782 5778 5774 5771 5767 5764 5761
5817 5818 5818 5817 5817 5817 5815 5814 5812 5811 5809 5809 5807 5806 5805 5803 5801 5799 5797 5793 5791 5788 5785 5782 5779 5775 5771 5767 5762 5758 5755 5751 5748
5809 5809 5808 5809 5808 5808 5807 5806 5804 5802 5800 5799 5798 5797 5796 5793 5790 5788 5786 5783 5781 5778 5774 5771 5767 5763 5758 5755 5751 5745 5742 5738 5735
5801 5801 5800 5800 5799 5799 5798 5798 5796 5794 5791 5789 5787 5786 5784 5783 5782 5778 5775 5772 5768 5765 5761 5756 5753 5750 5745 5741 5738 5732 5728 5724 5721
5792 5791 5791 5790 5790 5790 5789 5788 5786 5784 5782 5780 5778 5775 5773 5771 5769 5767 5764 5760 5756 5753 5747 5742 5738 5734 5730 5725 5721 5716 5712 5709 5704